Dewpoint
64 62 59 56 59 58 52 49 28 38 36 32 30 30 20 28 26 19 18 14 20 25 31 33 35 36 31 33 34 38 40 41 41 32 29 47 50 51 53 54 55 58 60 60 60 60 60 64 62 63 63 63 63 64 65 65 66 65 65 66 66 66 66 67 67 68 68 68 68 68 67 68 68 68 68 68 68 68 68 68 68 68 69 69 69 69 69 70 69 69 69 69 69 69 69 69 70
62 60 59 57 55 53 48 47 37 34 33 28 28 28 22 24 22 18 15 22 27 27 32 31 33 34 34 33 39 39 40 42 43 47 46 50 50 50 51 54 54 55 58 59 59 59 59 61 62 62 62 62 62 64 65 65 64 64 64 64 65 65 65 65 66 66 66 66 66 66 66 66 67 66 67 67 67 67 67 66 66 67 67 68 68 68 69 69 69 69 69 68 68 67 68 68 68
62 58 58 55 52 52 50 42 34 32 29 26 29 24 23 19 28 29 28 28 29 31 29 28 32 33 32 31 28 29 34 42 42 45 46 48 45 46 49 52 55 55 58 58 58 58 59 61 63 61 61 61 62 63 64 64 64 63 63 63 64 64 64 64 64 65 65 65 65 65 65 65 65 65 65 66 66 66 65 65 65 65 66 66 67 67 67 67 68 67 67 67 66 65 66 66 66
61 59 57 54 50 47 40 39 35 31 30 28 26 24 22 25 30 30 30 29 31 30 30 27 30 32 31 30 30 39 40 40 42 43 44 45 44 46 49 52 55 53 57 57 58 58 59 62 62 61 61 61 62 62 63 63 63 63 62 62 63 62 63 63 63 63 63 63 63 63 63 64 64 64 64 64 64 64 64 64 63 64 64 65 65 66 66 66 66 66 66 65 64 63 63 64 64
53 58 58 50 49 45 40 38 36 33 31 31 20 25 23 31 30 29 29 29 29 27 28 28 30 32 33 31 33 32 39 43 42 44 45 46 48 47 49 52 51 53 56 56 57 57 59 62 61 61 61 61 62 62 62 62 62 62 62 62 62 62 62 62 62 62 62 62 61 62 62 62 62 62 63 63 62 62 61 61 61 61 61 62 62 63 64 64 63 63 63 63 62 61 61 61 61
55 53 56 50 46 46 41 37 35 29 31 32 20 17 22 30 29 28 29 29 29 29 28 26 26 30 29 32 39 39 41 39 43 43 44 43 47 48 49 52 48 52 55 55 56 56 57 62 61 61 61 61 61 61 61 61 61 61 61 61 61 61 61 61 61 61 60 60 60 60 60 60 60 60 60 60 60 59 59 59 59 59 59 59 59 60 60 61 61 60 60 60 60 59 59 59 58
51 51 47 45 44 39 35 34 33 33 31 28 22 19 28 30 29 28 28 28 30 29 30 27 30 27 28 32 34 43 46 48 41 44 44 45 47 48 48 46 50 54 54 55 55 55 57 61 60 60 60 60 60 60 60 60 60 60 59 59 59 59 59 59 59 59 59 59 59 58 58 58 58 58 59 58 58 58 58 58 58 58 58 58 58 58 59 60 60 59 59 59 59 58 58 57 57
53 47 45 37 36 31 28 28 27 28 22 24 21 25 29 29 29 28 27 24 26 23 27 29 29 27 27 33 30 41 46 47 48 45 45 45 46 46 46 44 52 53 53 54 54 55 60 60 59 59 59 59 59 59 59 59 59 58 58 58 58 58 58 58 58 58 58 58 57 57 57 58 58 58 58 59 59 58 58 58 58 58 57 57 57 57 57 58 58 58 57 57 57 57 57 57 56
48 46 47 38 30 34 31 28 27 26 23 24 20 31 37 29 28 27 27 26 28 26 26 28 26 22 22 29 34 41 44 46 44 45 43 43 43 43 41 45 50 52 53 53 53 53 55 59 59 59 58 59 58 58 58 58 58 58 58 57 57 57 57 57 57 57 57 57 56 56 57 57 57 57 57 58 58 57 56 56 57 57 57 57 57 57 57 57 56 56 57 56 57 56 56 55 55
42 41 35 32 35 30 31 30 29 30 29 24 21 21 27 27 26 26 25 27 26 25 26 29 24 20 26 28 36 39 43 42 41 40 41 41 40 40 40 45 50 51 51 51 52 53 54 59 58 58 58 59 58 57 57 58 58 58 57 56 56 56 56 56 56 56 56 57 56 56 55 55 55 56 56 56 57 56 55 55 55 56 56 56 55 55 55 56 56 56 56 56 56 56 55 55 54
38 41 42 31 31 32 31 29 26 28 23 22 19 21 24 23 22 23 22 24 27 26 28 28 27 25 26 27 37 44 44 39 36 36 38 38 39 37 38 45 50 51 50 51 51 52 53 54 58 58 58 58 57 57 57 57 57 57 57 57 56 55 54 54 54 55 55 55 55 55 55 53 52 52 54 55 55 55 54 54 54 54 55 55 54 54 55 55 55 55 55 55 55 54 55 55 54
37 38 36 31 28 25 26 27 29 28 27 24 20 21 22 23 24 20 22 22 25 26 26 27 27 27 26 27 37 40 39 37 37 37 37 38 33 37 40 42 47 49 50 50 51 50 51 52 53 56 57 56 56 56 56 56 56 56 56 56 55 55 54 54 53 53 53 52 52 52 52 52 51 50 51 52 53 54 54 53 53 53 54 53 53 53 54 54 54 54 54 54 53 52 53 53 53
38 38 34 28 29 26 28 28 28 32 26 24 23 21 24 22 23 21 21 21 24 26 27 27 27 26 28 28 38 39 37 38 38 38 37 32 35 36 39 40 44 47 48 49 48 48 49 49 51 52 54 55 55 55 55 55 55 55 55 55 54 54 53 53 52 52 51 50 49 50 50 50 50 49 48 48 49 51 52 52 51 51 52 52 52 52 53 53 53 53 52 52 51 51 51 50 49
38 38 34 29 33 28 25 27 28 24 23 22 21 24 25 23 23 22 21 21 23 25 27 28 27 26 27 29 36 37 36 39 36 38 33 34 35 36 39 39 42 43 46 46 46 47 46 47 49 50 50 50 50 53 54 53 53 54 53 53 52 52 52 51 50 49 49 48 47 46 48 48 48 48 48 46 46 47 49 50 49 49 50 51 50 50 51 51 51 50 51 50 49 49 49 48 49
37 41 32 32 28 23 29 21 22 24 25 25 22 24 24 25 24 27 21 23 21 28 29 27 30 22 19 25 25 38 37 39 36 35 35 35 35 35 39 39 40 40 40 43 44 44 44 44 46 46 47 46 46 46 47 51 52 51 51 51 50 49 49 48 48 47 46 46 46 45 44 44 45 44 44 44 43 43 45 47 46 46 48 49 48 47 49 49 48 48 49 47 47 47 47 47 47
41 38 33 28 26 24 26 26 28 25 24 24 22 24 23 23 26 24 25 24 29 35 29 25 28 23 25 23 29 36 37 36 34 35 33 34 37 38 38 37 35 36 37 38 40 41 40 40 43 43 43 43 43 44 46 47 51 50 50 49 49 48 47 45 44 43 43 46 44 46 43 41 41 42 42 43 41 41 42 44 44 44 45 46 45 46 47 46 46 46 46 46 45 45 44 44 45
41 39 27 31 24 25 28 26 24 22 27 26 23 22 20 21 25 25 26 27 27 29 28 29 26 30 29 30 38 37 35 36 37 34 32 32 34 34 35 34 35 35 37 35 35 36 36 37 40 41 42 41 42 42 43 44 47 49 49 47 47 46 46 44 43 44 45 43 43 46 42 35 36 36 37 39 45 44 43 45 42 42 42 42 42 44 45 44 44 44 44 44 43 43 41 45 45
40 32 30 25 29 28 30 27 23 25 22 22 21 21 19 19 23 25 25 24 25 27 28 28 28 30 34 38 37 36 35 34 33 29 29 31 32 31 31 31 33 31 34 32 33 33 35 37 39 39 40 40 40 42 42 43 45 44 42 43 43 45 46 47 44 43 47 40 45 40 38 38 35 37 39 42 43 43 42 46 42 40 41 41 39 41 43 43 43 43 43 41 41 41 42 36 38
37 35 29 22 28 27 29 23 19 19 19 20 21 21 20 19 23 24 22 21 23 23 24 28 27 29 34 34 35 34 34 33 31 28 29 30 30 30 30 30 30 30 32 32 32 32 34 35 36 37 38 38 39 39 40 41 41 39 40 40 42 45 44 42 41 40 39 39 36 37 38 37 35 37 38 41 43 45 43 42 39 38 38 39 38 38 40 41 41 41 41 39 40 40 34 33 34
39 33 30 31 33 29 26 22 20 21 20 20 20 21 20 20 23 24 23 21 23 21 21 25 26 26 31 33 33 33 32 31 30 29 28 29 29 29 29 30 28 29 29 30 30 34 33 33 34 36 37 38 38 38 39 39 40 38 37 38 38 38 38 39 38 38 38 37 35 35 35 37 36 37 45 44 40 33 35 41 40 39 38 39 38 36 37 39 40 40 40 38 37 34 31 29 32
35 32 30 30 30 26 23 22 22 22 21 21 20 22 21 21 21 22 22 21 20 20 21 21 23 25 29 32 33 33 32 31 30 30 29 29 30 30 28 28 26 27 29 30 33 32 32 32 34 36 37 38 37 38 37 37 37 35 34 36 36 36 36 36 36 37 37 36 35 33 35 35 35 34 34 32 32 32 32 31 31 31 30 31 37 30 28 31 31 31 31 33 29 30 29 28 31
35 28 27 28 28 25 25 22 25 22 23 21 21 18 17 24 22 22 21 19 18 19 20 22 21 23 28 31 32 32 31 31 30 30 30 30 30 29 28 28 26 26 31 29 30 31 32 31 33 35 36 37 37 37 36 36 35 33 33 36 35 35 37 34 34 35 35 34 34 35 36 33 33 33 33 32 32 32 31 30 30 30 29 28 32 29 28 28 28 28 30 29 28 28 28 28 30
28 28 27 28 28 26 26 21 25 21 21 20 19 19 21 20 20 21 21 20 20 22 22 21 22 23 28 31 32 32 31 31 30 31 31 30 31 30 27 26 24 24 29 28 28 29 30 30 33 34 35 36 36 36 34 36 33 33 33 34 34 34 35 34 34 33 32 35 34 37 32 30 31 31 31 31 31 32 30 30 29 29 28 26 29 28 28 27 28 28 29 29 29 29 28 29 30
30 28 23 22 25 24 22 20 26 21 20 19 19 22 20 21 18 21 20 21 21 21 23 23 24 24 26 30 31 31 31 31 31 31 31 31 31 31 29 26 24 24 28 27 27 27 31 30 32 33 33 34 34 34 33 34 32 32 32 38 34 35 33 31 31 31 34 32 35 35 33 30 29 29 29 30 31 31 30 30 28 29 28 27 29 29 27 27 28 28 29 29 29 28 28 28 29
29 28 26 24 22 22 23 22 22 21 21 20 23 21 19 20 19 21 19 20 21 22 22 22 23 27 28 29 30 31 31 31 31 32 33 32 33 33 34 29 25 25 26 27 27 26 29 30 31 31 32 33 33 33 31 31 32 31 33 33 31 38 31 31 31 32 30 33 33 35 33 29 29 28 28 29 30 30 29 29 28 28 28 27 27 28 28 27 28 29 29 29 29 28 27 27 30
24 25 24 22 21 20 20 20 21 21 21 21 20 19 19 20 22 19 20 20 21 21 22 22 22 25 27 28 29 30 30 31 32 31 31 33 33 33 33 29 25 23 25 26 27 25 27 29 30 30 31 31 33 31 29 30 32 31 31 30 30 37 30 30 31 30 30 31 31 32 33 30 28 28 28 29 28 29 29 30 29 28 27 27 26 26 30 29 29 29 29 29 28 27 27 27 28
23 23 22 20 20 20 21 20 20 21 21 21 19 19 19 24 21 17 18 19 21 21 20 21 21 21 25 27 29 30 30 30 30 31 32 32 32 32 32 32 26 23 25 25 26 25 28 28 30 30 30 34 33 29 29 29 31 29 30 29 30 31 30 30 31 29 30 30 31 31 32 32 29 29 28 28 28 28 28 28 28 28 27 26 26 27 29 31 30 29 29 29 27 27 27 26 27
23 21 20 20 20 20 20 20 19 20 20 21 20 19 20 21 24 18 18 20 21 20 20 20 22 21 22 26 28 31 30 31 31 32 31 30 31 30 31 31 27 24 25 25 25 25 27 28 29 29 29 32 33 28 30 29 28 28 30 27 28 30 30 28 29 29 31 30 32 31 29 31 32 30 28 28 28 28 27 28 29 27 26 26 27 27 29 30 29 29 29 31 28 27 26 26 27
21 21 20 20 20 20 21 20 20 20 19 21 21 20 19 21 19 20 20 20 21 21 20 21 21 21 23 23 26 29 30 30 31 31 31 30 30 30 30 30 29 24 25 25 25 27 26 27 28 28 29 32 31 27 29 29 28 29 30 25 28 32 28 28 27 28 29 30 32 30 29 31 31 29 29 30 32 27 28 28 28 28 26 25 27 30 30 28 27 27 28 29 27 28 27 25 28
22 21 20 20 20 19 19 23 20 20 19 21 19 16 16 16 18 20 20 20 20 20 20 20 22 21 21 23 23 27 29 30 31 31 31 31 30 30 29 30 30 25 25 26 25 25 27 30 30 29 29 30 30 27 28 28 28 29 29 26 31 29 27 27 28 28 30 30 31 29 29 31 30 29 28 28 26 26 27 27 26 26 27 27 28 28 26 27 26 27 28 25 30 28 25 25 25
20 21 21 20 19 18 20 19 19 18 22 20 18 17 15 15 15 16 19 20 19 19 19 19 21 22 22 23 24 24 25 29 29 30 32 32 31 30 30 30 30 26 28 26 25 25 27 28 29 26 31 29 30 27 29 28 28 29 27 27 29 28 27 26 27 28 29 29 29 29 29 30 28 29 29 26 25 26 25 26 26 26 26 27 26 28 26 26 26 27 28 25 26 26 26 26 25
21 19 20 25 19 20 19 22 19 17 20 19 18 19 16 16 16 17 18 19 19 19 19 19 20 20 22 22 23 23 24 25 28 30 30 31 31 30 31 30 30 27 26 26 25 25 25 26 28 26 29 28 27 27 28 28 28 28 27 30 28 28 27 26 26 27 28 29 29 28 28 30 28 27 28 27 25 25 24 24 25 27 27 26 27 28 29 25 27 28 29 27 24 23 25 22 23
24 19 20 19 24 20 20 21 20 18 19 19 18 16 17 15 16 17 18 17 19 19 18 19 19 19 20 21 22 23 24 24 27 27 29 31 32 30 30 29 30 28 26 26 25 24 24 25 27 25 26 26 25 26 28 28 28 27 27 28 27 28 26 26 25 26 27 27 28 28 28 30 27 28 27 28 24 24 24 24 25 26 28 25 26 27 26 30 25 28 28 31 24 23 23 22 22
22 24 19 23 19 18 19 23 21 24 18 17 17 16 16 16 14 14 16 22 18 18 18 19 19 19 19 21 21 22 23 23 24 24 26 30 32 31 29 33 30 29 26 26 25 24 23 24 25 25 26 25 25 27 27 28 27 27 27 27 29 26 25 25 25 25 26 27 27 27 28 29 28 27 27 27 25 25 25 24 25 26 26 26 26 25 24 26 26 26 24 25 25 24 22 22 22
18 23 22 20 20 20 19 19 20 18 18 17 17 17 17 17 17 16 16 21 20 18 18 19 19 19 20 20 21 21 22 23 23 24 27 29 32 32 30 30 30 29 26 25 25 24 24 24 25 26 26 25 25 27 27 27 26 26 26 26 27 26 25 25 25 24 25 26 27 28 28 28 28 27 27 27 24 26 23 25 24 26 26 25 25 24 24 28 30 25 22 23 26 24 23 24 23
17 19 18 20 18 15 13 14 20 18 18 17 17 17 16 17 17 17 17 17 17 19 19 19 19 19 19 20 21 21 22 22 23 27 30 30 31 32 30 30 30 29 26 25 26 24 23 23 23 26 25 24 25 26 27 26 25 26 25 26 26 27 25 26 24 23 24 24 28 28 27 27 28 27 26 26 25 24 23 24 24 27 25 24 24 23 23 22 23 22 22 24 23 25 26 25 24
17 22 22 17 17 17 17 17 18 19 18 17 17 17 17 17 17 17 17 17 18 17 17 18 19 19 19 19 19 20 20 20 26 31 31 30 32 32 31 31 30 29 26 25 25 24 23 23 24 25 25 24 25 26 25 25 24 24 25 24 22 25 24 25 25 24 24 24 28 27 27 27 28 27 27 26 24 26 24 24 24 24 25 25 24 24 25 25 24 22 25 25 25 24 23 23 21
19 20 21 18 23 18 18 18 18 19 18 17 18 18 17 16 17 17 17 17 16 16 16 16 17 18 19 19 20 20 20 24 30 31 31 32 32 34 32 31 31 28 26 25 25 24 23 23 23 24 25 23 24 25 25 24 23 23 23 23 21 24 25 25 23 23 24 27 28 27 26 26 27 27 27 25 24 24 22 22 22 23 24 24 24 26 24 30 27 23 24 23 25 23 21 22 23
21 20 20 21 21 23 21 20 20 19 19 16 17 17 17 18 18 18 17 17 17 17 17 17 17 18 19 19 20 20 21 22 28 29 31 30 33 33 31 31 30 28 26 25 25 25 24 23 23 24 24 23 24 25 25 23 24 24 22 24 22 23 25 25 23 24 26 26 27 26 26 26 27 26 26 25 24 24 22 22 22 23 23 25 22 21 23 22 23 23 24 21 21 23 25 25 22
21 20 21 19 21 19 16 19 20 19 17 20 19 17 18 19 20 20 19 19 19 21 20 20 21 20 20 19 19 21 21 22 25 28 29 29 31 31 30 30 29 28 26 25 26 24 24 25 23 24 24 23 23 25 26 24 24 24 25 25 24 24 24 27 25 26 26 26 26 26 26 26 26 25 26 25 25 24 22 22 22 21 21 23 21 20 21 21 22 22 22 25 22 19 20 21 25
22 23 21 20 21 20 19 15 22 22 24 24 18 20 20 21 20 21 21 22 21 21 21 21 22 26 25 27 27 26 22 22 26 29 30 29 30 30 29 29 29 28 26 25 26 25 24 25 24 24 25 23 23 26 26 25 26 25 27 26 26 26 26 25 24 24 25 25 25 25 25 26 26 25 25 25 25 23 23 22 21 21 21 22 22 20 20 21 22 22 22 24 20 18 19 21 23
20 24 23 21 21 19 20 22 20 21 23 25 23 20 18 22 22 22 22 21 21 22 22 22 22 22 23 23 23 24 29 28 27 29 30 29 29 29 28 28 28 27 26 25 26 26 25 26 25 25 25 24 24 25 26 25 25 23 24 24 22 22 23 23 22 22 23 24 24 24 25 26 26 25 25 25 25 24 23 23 22 21 20 22 23 21 21 22 22 21 21 20 20 22 20 20 20
20 21 26 24 23 23 23 24 23 21 20 24 24 20 17 20 20 22 22 22 21 21 22 22 22 22 22 23 24 23 25 29 31 30 30 29 29 29 28 27 27 26 25 26 26 26 25 26 25 25 25 25 26 25 26 26 24 23 22 22 22 20 20 23 22 22 22 23 25 24 24 25 26 25 25 25 25 25 24 23 22 21 21 21 25 21 20 20 21 21 24 21 22 27 21 19 19
20 27 30 28 26 26 26 27 26 23 27 28 23 23 18 20 20 19 20 19 19 19 20 21 22 22 22 22 23 23 25 29 32 30 30 29 29 29 27 27 27 26 25 25 25 26 25 26 26 26 25 26 25 26 25 25 23 22 22 21 22 21 20 21 21 22 23 24 24 24 24 25 25 25 25 24 24 24 23 23 22 22 21 21 24 20 20 21 22 23 23 23 23 23 21 19 18
25 30 33 30 29 29 29 27 26 26 22 22 22 23 20 19 19 19 18 17 17 16 16 18 20 22 22 22 22 22 23 29 32 31 29 29 29 29 28 27 27 26 26 25 25 25 26 26 26 26 25 25 25 25 25 24 24 22 22 21 21 22 20 22 23 25 24 25 23 24 24 24 24 24 24 24 23 23 24 22 22 21 21 21 24 22 21 22 20 20 19 19 19 21 22 21 20
29 31 32 31 29 28 26 22 21 23 18 20 22 23 18 15 16 17 19 18 17 17 17 16 18 19 21 22 22 21 22 30 32 31 30 29 29 29 28 27 27 27 27 28 25 25 26 26 26 26 25 25 24 24 25 24 23 23 22 21 21 21 22 23 22 23 23 24 23 23 24 24 24 23 23 23 23 23 22 22 21 20 20 21 24 21 21 21 21 21 21 20 21 20 21 22 21
33 30 28 28 27 25 24 24 23 21 17 20 22 23 18 14 14 17 19 20 17 16 16 16 17 19 18 19 19 21 22 30 33 32 31 30 29 29 29 28 27 27 28 27 26 25 25 26 25 25 25 25 24 24 24 23 23 23 21 21 21 21 21 21 21 22 22 23 21 22 23 23 23 23 23 22 22 22 21 22 21 20 20 23 23 20 20 20 21 21 21 21 21 20 20 21 23
29 25 24 23 24 23 23 20 20 14 16 20 21 23 21 15 12 18 16 18 17 16 15 14 16 16 17 18 19 19 19 27 33 32 31 30 29 29 29 28 27 27 28 27 26 25 25 25 25 25 25 25 24 24 23 23 23 23 22 21 21 21 20 21 19 20 21 21 21 21 22 22 22 23 22 21 21 21 21 20 20 20 21 21 20 20 20 20 20 20 20 20 20 20 20 22 19
29 24 23 18 18 19 11 14 11 13 14 16 21 23 21 17 12 15 16 16 17 17 15 15 16 16 17 17 19 21 23 29 33 33 32 30 29 29 29 28 28 27 27 27 27 25 24 24 24 24 24 24 24 23 23 22 23 22 23 22 21 21 20 20 19 19 21 20 20 20 21 21 22 21 20 20 20 20 20 19 19 18 19 19 19 19 20 20 20 19 19 19 19 18 18 18 18
27 24 23 19 13 11 8 12 14 15 19 20 18 24 15 14 17 19 18 18 17 18 18 18 17 16 16 17 18 23 28 31 33 33 32 30 30 29 29 29 28 28 27 27 27 26 25 25 23 23 24 24 24 24 23 22 22 22 22 22 21 21 20 20 18 18 20 20 21 20 19 20 20 20 19 19 19 19 20 18 19 18 18 19 19 19 19 19 19 18 19 18 18 19 19 18 18
25 26 23 22 19 11 7 11 10 12 13 17 20 18 19 10 15 22 19 19 19 18 18 19 19 19 17 17 20 27 31 32 34 33 33 31 30 29 29 29 28 28 28 28 27 27 25 24 24 23 23 24 24 24 23 22 22 22 22 22 21 20 20 20 20 20 19 19 20 19 19 19 18 18 19 18 19 19 18 18 18 18 18 19 20 19 21 19 20 20 20 19 19 19 18 19 17
25 26 25 21 21 21 13 16 15 10 16 16 15 18 19 16 19 21 22 21 21 19 18 20 18 19 20 20 24 28 32 33 34 33 33 31 30 29 29 29 29 28 28 28 27 27 26 25 24 23 23 23 23 24 24 22 22 22 22 22 21 21 21 21 22 22 20 19 19 19 19 18 17 17 17 18 19 18 18 18 19 18 18 18 18 18 19 19 19 18 19 19 18 21 18 17 17
24 24 21 22 25 21 20 21 19 14 13 15 13 17 19 19 14 16 18 17 18 20 16 16 16 17 18 22 24 30 33 33 34 33 33 32 31 30 30 28 28 28 28 28 28 27 26 26 25 23 22 23 23 23 23 23 22 22 22 22 21 21 21 20 20 21 20 20 19 19 19 17 16 16 17 18 18 17 17 17 17 17 17 17 18 18 18 18 18 18 17 17 16 17 18 16 16
23 20 23 27 29 27 22 16 17 12 13 15 16 15 14 14 15 19 17 17 17 19 19 15 15 16 16 20 25 33 33 33 34 33 33 33 32 30 30 30 28 28 27 27 27 27 27 27 25 24 23 22 23 23 23 24 23 22 22 22 21 21 21 21 21 21 20 20 19 19 18 17 15 16 17 19 17 17 17 19 16 16 17 17 17 18 18 18 18 17 17 16 16 16 16 16 16
23 25 29 23 19 17 21 21 16 15 15 15 15 14 15 15 14 13 13 14 16 16 18 18 16 14 15 16 24 32 33 33 33 33 34 33 33 32 30 29 29 28 28 27 27 28 28 27 26 24 23 22 23 23 23 24 23 24 24 22 21 21 21 21 21 22 21 20 19 17 16 16 15 16 17 17 16 16 16 16 16 16 16 17 17 17 17 17 16 16 16 16 16 16 15 14 14
28 28 25 26 22 20 20 23 22 19 15 16 16 18 15 19 14 14 14 12 15 14 15 16 16 16 14 16 23 29 31 33 33 33 34 34 33 32 31 30 29 28 28 28 27 27 27 27 27 26 25 24 23 23 23 23 23 24 24 23 22 22 22 22 22 21 20 19 18 17 16 14 14 16 15 15 14 15 15 15 15 15 16 16 16 16 16 15 15 15 15 15 14 14 13 12 12
24 24 23 22 19 22 24 21 21 18 15 14 14 14 16 18 13 12 13 11 13 14 15 17 17 17 16 17 21 25 29 32 33 33 33 34 34 33 32 31 30 29 28 28 27 27 27 27 27 26 25 24 23 23 23 23 24 24 24 23 22 22 21 22 22 20 19 18 17 17 15 13 14 14 14 13 14 14 15 15 15 15 15 15 15 14 15 14 14 13 13 13 12 12 11 10 11
25 24 23 23 22 19 18 18 23 21 18 16 14 14 19 18 13 15 17 14 18 17 16 17 17 16 17 21 21 23 27 30 31 32 32 33 33 33 33 31 29 30 29 28 28 27 27 27 27 27 26 25 23 23 23 23 24 24 23 23 22 21 22 22 21 19 18 17 15 15 14 13 12 13 13 13 13 14 14 14 14 14 14 14 13 13 12 11 11 10 10 10 9 10 9 8 8